Regional Weather Roundup
Issued by NWS

Home | Current Version | Previous Version | Text Only | Print | Product List | Glossary Off
Versions: 1 2 3 4 5 6 7 8 9 10 11 12 13 14 15 16 17 18 19 20 21 22 23 24 25 26 27 28 29 30 31 32 33 34 35 36 37 38 39 40 41 42 43 44 45 46 47 48 49 50

803
ASUS43 KIND 130159
RWRIN

WEATHER ROUNDUP FOR INDIANA
NATIONAL WEATHER SERVICE INDIANAPOLIS IN
900 PM EST FRI FEB 12 2016

NOTE: "FAIR" INDICATES FEW OR NO CLOUDS BELOW 12,000 FEET WITH NO
SIGNIFICANT WEATHER AND/OR OBSTRUCTIONS TO VISIBILITY.

* - STATION DOES NOT REPORT WEATHER SUCH AS PRECIPITATION OR FOG.

+ - STATION NOT QUALITY CONTROLLED BY THE NATIONAL WEATHER SERVICE.
    USE DATA WITH CAUTION...ESPECIALLY DEWPOINT AND RELATIVE
    HUMIDITY OBSERVATIONS.

INZ001>003-010>013-019-020-130300-
NORTHWEST INDIANA

CITY           SKY/WX    TMP DP  RH WIND       PRES   REMARKS
GARY /AIRPORT/ MOCLDY    18  -6  35 NW20      30.33R WCI   1
MONTICELLO +   PTCLDY    18  -2  40 NW18G28   30.27R WCI   2
RENSSELAER +   CLEAR     19  -6  32 NW15G23   30.30R WCI   5

$$

LMZ046-743>745-130300-
SOUTHERN LAKE MICHIGAN

STATION/POSITION TIME  TEMP    WIND        PRES    WAVE
                       AIR SEA DIR/SP/G            HT
                 (UTC) (F)     (DEG/KT/KT) (MB)    (FT)
BURNS HARBOR     0105   19     330/ 22/ 25 1025.4R
MICHIGAN CITY    0100   18     310/ 34/ 38   N/A

$$

INZ004-005-014>016-021>024-130300-
NORTH CENTRAL INDIANA

CITY           SKY/WX    TMP DP  RH WIND       PRES   REMARKS
ELKHART        LGT SNOW  16   9  73 NW21G30   30.24R WCI  -2
GOSHEN         MOCLDY    14   8  77 NW20G26   30.22R WCI  -3
SOUTH BEND     LGT SNOW  14  10  84 NW15      30.25R VSB 3/4 WCI  -1

$$

INZ006>009-017-018-025>027-130300-
NORTHEAST INDIANA

CITY           SKY/WX    TMP DP  RH WIND       PRES   REMARKS
ANGOLA *+      MOCLDY    12   7  79 NW9       30.15R WCI   0
FORT WAYNE     FLURRIES  16   9  74 NW15      30.21R WCI   1

$$

INZ028-029-035-036-043>045-051>053-130300-
WEST CENTRAL INDIANA

CITY           SKY/WX    TMP DP  RH WIND       PRES   REMARKS
CRAWFORDSVL +  CLEAR     17   3  54 NW17      30.30R WCI   1
GREENCASTLE +  CLOUDY    23   3  42 NW10G23   30.29R WCI  12
LAFAYETTE      CLEAR     18   4  54 NW13G24   30.31R WCI   5
TERRE HAUTE    CLEAR     22   9  57 NW15G23   30.34R WCI   9

$$

INZ030>032-037>040-046>048-054>057-064-065-130300-
CENTRAL INDIANA

CITY           SKY/WX    TMP DP  RH WIND       PRES   REMARKS
FRANKFORT +    CLEAR     19  -1  40 NW16G28   30.28R WCI   5
GREENWOOD *+   CLOUDY    23  10  58 NW21G30   30.27R WCI   8
INDIANAPOLIS   MOCLDY    20   6  55 NW20      30.27R WCI   4
-EAGLE CREEK   PTCLDY    20   7  57 NW15      30.27R WCI   6
KOKOMO *+      MOCLDY    18   7  62 NW16      30.24R WCI   3
MT COMFORT *+  PTCLDY    19   5  53 NW15G24   30.26R WCI   5
SHELBYVILLE    CLOUDY    23   9  55 NW16      30.25R WCI  10

$$

INZ033-034-041-042-049-050-058-059-130300-
EAST CENTRAL INDIANA

CITY           SKY/WX    TMP DP  RH WIND       PRES   REMARKS
MUNCIE         PTCLDY    19   5  54 NW14G24   30.22R WCI   6

$$

INZ060-061-067>069-081>083-085>088-130300-
SOUTHWEST INDIANA

CITY           SKY/WX    TMP DP  RH WIND       PRES   REMARKS
EVANSVILLE     MOCLDY    28  13  53 NW13      30.40R WCI  17
HUNTINGBURG *+ CLOUDY    27  12  54 NW18G28   30.36R WCI  13

$$

INZ062-063-066-070>080-084-089>092-130300-
SOUTH CENTRAL AND SOUTHEAST INDIANA

CITY           SKY/WX    TMP DP  RH WIND       PRES   REMARKS
BLOOMINGTON    MOCLDY    23  11  60 NW7       30.28R WCI  15
MADISON *+     CLOUDY    27  12  54 NW13G20   30.28R WCI  16
SEYMOUR +      MOCLDY    27  10  50 NW14G22   30.29R WCI  15

$$





USA.gov is the U.S. government's official web portal to all federal, state and local government web resources and services.